#timestamp,LO_Frequency,Hit,StdDev 
1507806015.9,286047001.0,N
1507806035.7,286046999.1,N
1507806055.6,286046999.3,N
1507806075.4,286046999.4,N
1507806095.3,286046996.7,N
1507806115.1,286046999.0,N
1507806116.0,286046999.0,N
1507806135.8,286046999.0,N
1507806155.7,286047001.1,N
1507806175.5,286047001.1,N
1507806195.4,286046998.4,N
1507806215.2,286046999.3,N
1507806235.0,286047001.2,N
1507806235.9,286047001.2,N
1507806255.8,286047001.2,N
1507806275.6,286046998.3,N
1507806295.4,286046998.9,N
1507806315.3,286046999.1,N
1507806335.1,286046999.3,N
1507806355.9,286046998.7,N
1507806375.7,286046999.0,N
1507806395.5,286046997.1,N
1507806415.4,286046999.6,N
1507806435.2,286046998.4,N
1507806455.1,286047000.7,N
1507806456.0,286047000.7,N
1507806475.8,286047000.9,N
1507806495.6,286046999.9,N
1507806515.5,286047001.6,N
1507806535.3,286047002.4,N
1507806555.1,286047002.7,N
1507806575.9,286047000.6,N
1507806595.7,286047000.4,N
1507806615.6,286047000.5,N
1507806635.4,286046999.8,N
1507806655.2,286047000.1,N
1507806675.1,286047001.0,N
1507806676.0,286047001.0,N
1507806695.8,286046998.3,N
1507806715.6,286047000.8,N
1507806735.5,286047001.2,N
1507806755.3,286047000.8,N
1507806775.2,286047000.8,N
1507806795.9,286047000.6,N
1507806815.7,286047002.2,N
1507806835.6,286047001.9,N
1507806855.4,286047002.7,N
1507806875.2,286047000.1,N
1507806895.1,286047000.1,N
1507806896.0,286047000.1,N
1507806915.8,286047000.7,N
1507806935.7,286047000.7,N
1507806955.5,286047001.0,N
1507806975.3,286046999.7,N
1507806995.2,286047000.3,N
1507807015.0,286047002.6,N
1507807015.9,286047002.6,N
1507807035.8,286047004.3,Y
1507807055.6,286047002.7,P
1507807075.4,286047002.0,N
1507807095.3,286047002.5,P
1507807115.1,286046999.7,N
1507807135.8,286047002.3,N
1507807155.7,286047002.3,N
1507807175.5,286046999.8,N
1507807195.4,286047002.8,N
1507807215.2,286047000.1,N
1507807235.0,286046999.8,N
1507807235.9,286046999.8,N
1507807255.8,286046998.6,N
1507807275.6,286046998.7,N
1507807295.5,286046998.3,N
1507807315.3,286046998.1,N
1507807335.1,286047000.1,N
1507807355.9,286047000.4,N
1507807375.7,286047000.8,N
1507807395.5,286047000.1,N
1507807415.4,286046998.6,N
1507807435.2,286047000.7,N
1507807455.1,286046998.7,N
1507807456.0,286046998.7,N
1507807475.8,286046999.1,N
1507807495.6,286046996.6,N
1507807515.5,286046998.9,N
1507807535.3,286046998.9,N
1507807555.1,286046998.9,N
1507807575.9,286046998.6,N
1507807595.7,286047001.1,N
1507807615.6,286046996.5,N
1507807635.4,286046998.7,N
1507807655.2,286046998.5,N
1507807675.1,286047000.7,N
1507807676.0,286047000.7,N
1507807695.8,286046998.7,N
1507807715.6,286046998.2,N
1507807735.5,286046998.7,N
1507807755.3,286046996.6,Y
1507807775.2,286047000.9,P
1507807795.9,286046998.1,N
1507807815.7,286046999.9,N
1507807835.6,286047002.1,N
1507807855.4,286047002.7,N
1507807875.3,286047000.9,N
1507807895.1,286046999.4,N
1507807896.0,286046999.4,N
1507807915.8,286046999.2,N
1507807935.7,286046997.2,N
1507807955.5,286046999.5,N
1507807975.3,286046996.8,N
1507807995.2,286046998.3,N
1507808015.0,286046998.5,N
1507808015.9,286046998.5,N
1507808035.8,286047001.0,N
1507808055.6,286046998.6,N
1507808075.4,286046999.3,N
1507808095.3,286046999.2,N
1507808115.1,286046996.9,N
1507808135.9,286046996.7,N
1507808155.7,286046996.5,N
1507808175.5,286046999.1,N
1507808195.4,286046996.5,N
1507808215.2,286046996.6,N
1507808235.0,286046997.6,N
1507808235.9,286046997.6,N
1507808255.8,286046999.1,N
1507808275.6,286046998.9,N
1507808295.4,286046997.6,N
1507808315.3,286046997.3,N
1507808335.1,286046996.5,N
1507808355.9,286046997.4,N
1507808375.7,286046997.0,N
1507808395.5,286046996.5,N
1507808415.4,286046997.3,N
1507808435.2,286046997.9,N
1507808455.1,286046997.9,N
1507808456.0,286046997.9,N
1507808475.8,286046995.1,Y
1507808495.7,286046999.1,P
1507808515.5,286046999.4,N
1507808535.3,286046999.6,N
1507808555.2,286046999.0,N
1507808575.9,286046998.3,N
1507808595.7,286046997.0,Y
1507808615.6,286046996.5,P
1507808635.4,286046997.0,N
1507808655.3,286046997.5,N
1507808675.1,286046998.0,N
1507808676.0,286046998.0,N
1507808695.8,286046997.1,Y
1507808715.7,286046999.1,P
1507808735.5,286046998.4,N
1507808755.3,286046999.8,N
1507808775.2,286047002.7,Y
1507808795.0,286047001.5,P
1507808795.9,286047001.5,N
1507808815.8,286047001.3,N
1507808835.6,286047003.9,Y
1507808855.4,286047002.2,P
1507808875.3,286047001.9,N
1507808895.1,286047000.0,N
1507808915.9,286047000.5,N
1507808935.7,286047001.1,N
1507808955.5,286046998.4,N
1507808975.4,286047001.1,N
1507808995.2,286047000.9,N
1507809015.0,286047000.7,N
1507809015.9,286047000.7,N
1507809035.8,286046998.7,N
1507809055.6,286046996.9,N
1507809075.5,286046998.7,N
1507809095.3,286046998.6,N
1507809115.1,286046998.1,N
1507809135.9,286046998.3,N
1507809155.7,286047000.3,N
1507809175.5,286047001.0,N
1507809195.4,286047001.2,N
1507809215.2,286047001.0,N
1507809235.1,286047001.3,N
1507809236.0,286047001.3,N
1507809255.8,286046999.9,N
1507809275.6,286047002.6,N
1507809295.5,286047001.6,N
1507809315.3,286047002.8,N
1507809335.1,286047000.7,N
1507809355.9,286046999.8,N
1507809375.7,286047000.0,N
1507809395.6,286047000.7,N
1507809415.4,286047000.3,N
1507809435.2,286047000.9,N
1507809455.1,286047000.9,N
1507809456.0,286047000.9,N
1507809475.8,286046998.7,N
1507809495.6,286046998.7,N
1507809515.5,286047000.7,N
1507809535.3,286047000.4,N
1507809555.2,286047001.1,N
1507809575.9,286047000.7,N
1507809595.7,286047000.4,N
